Wind_Speed
14 15 15 14 14 14 15 18 19 19 17 15 13 11 11 11 12 12 12 11 12 15 17 16 18 16 13 10 11 18 10 13 10 7 8 8 11 15 15 12 10 11 8 9 10
16 17 17 17 16 16 17 17 16 14 13 12 12 12 13 15 15 14 15 17 12 19 19 20 19 16 14 14 15 11 12 8 10 8 8 7 10 14 13 10 8 9 7 6 8
15 18 18 17 16 17 15 15 14 12 13 12 14 14 13 16 18 20 25 24 25 23 16 19 17 16 17 16 14 13 16 12 11 9 7 7 10 14 10 7 6 5 4 5 7
13 15 17 16 15 14 14 13 13 12 12 12 13 17 16 19 19 17 24 23 19 20 21 16 21 17 10 16 15 15 13 13 13 11 10 7 7 9 8 6 4 3 2 2 6
12 13 14 15 15 14 13 12 12 11 10 11 11 14 17 19 15 16 19 20 19 20 19 16 18 9 10 11 8 11 12 11 12 10 6 5 2 5 4 3 4 2 1 0 2
10 11 12 13 13 13 13 12 12 12 11 11 11 13 14 18 25 19 14 15 16 14 15 15 13 7 5 8 14 11 15 15 12 13 9 5 6 6 8 1 3 2 4 2 2
10 10 9 10 12 13 13 12 12 12 13 13 12 12 13 15 17 12 14 14 18 13 13 15 15 11 7 7 10 11 8 3 10 10 9 12 11 13 8 2 4 4 2 4 6
7 8 9 8 7 9 11 11 11 12 13 14 16 14 15 15 15 16 16 15 10 8 12 13 13 10 6 6 6 6 8 5 5 8 6 8 7 7 3 7 5 2 3 8 8
1 3 5 7 7 4 6 8 8 8 9 10 13 14 16 15 15 16 14 12 10 11 10 9 7 8 5 4 3 4 3 2 5 7 8 8 6 10 8 5 4 3 5 6 11
5 4 2 0 3 5 3 4 7 6 8 9 10 10 8 10 12 12 15 13 12 11 13 9 8 4 8 5 5 3 1 7 10 10 7 6 7 4 3 4 8 9 7 9 9
9 8 6 6 4 1 3 1 3 5 6 7 11 9 9 11 11 11 10 10 10 10 8 7 6 6 6 9 11 3 2 5 4 8 4 4 5 6 8 9 7 8 7 13 10
13 12 11 10 8 6 3 2 5 8 10 11 9 11 10 12 11 8 8 10 12 13 12 11 9 9 11 11 11 8 7 7 7 7 3 6 6 4 4 11 16 13 11 16 14
17 16 16 14 13 10 9 9 9 8 9 10 12 11 9 9 9 10 11 10 11 8 11 10 11 11 12 12 15 13 8 10 7 6 7 5 5 7 10 12 17 17 12 14 20
21 20 20 19 17 16 15 14 14 12 11 14 14 11 11 13 11 12 13 11 9 11 12 12 13 14 14 15 17 11 19 16 11 11 12 10 9 10 13 14 20 17 14 12 22
24 24 24 23 22 21 20 19 19 16 16 18 19 16 16 16 20 13 16 13 12 14 12 11 18 18 15 18 18 13 20 18 14 18 17 17 16 12 8 14 18 14 10 25 13
27 27 26 26 25 26 25 24 23 21 21 21 21 21 20 21 21 20 18 17 17 16 13 14 21 19 14 21 19 13 17 20 17 18 21 21 22 5 12 12 12 10 11 13 13
31 31 30 29 28 28 28 28 25 23 25 27 27 27 26 25 24 24 24 20 18 18 15 19 21 19 16 20 18 19 18 17 16 18 22 23 23 10 12 13 13 7 11 15 15
30 33 34 34 32 32 31 30 27 27 29 28 29 30 28 27 27 28 27 25 21 21 21 21 19 19 14 14 21 24 20 14 23 17 17 21 21 10 9 9 15 12 12 16 20
29 30 32 33 33 36 35 32 26 29 29 30 30 30 31 32 31 30 26 27 25 24 21 22 18 22 16 20 24 21 18 16 21 22 22 21 21 10 8 9 12 14 15 16 19
31 31 32 32 33 35 37 32 28 25 29 30 33 32 31 33 32 31 30 24 24 25 24 18 20 20 19 23 27 26 22 20 20 23 21 21 23 14 11 14 16 13 17 17 16
38 38 37 35 35 37 35 31 27 24 28 32 33 34 32 34 35 34 28 24 23 24 27 22 19 18 19 21 26 25 19 22 23 22 26 26 17 12 12 15 20 19 19 17 13
34 35 36 41 39 35 34 33 30 30 32 35 35 35 30 35 34 32 27 26 23 22 21 20 18 21 21 21 25 31 27 26 25 28 31 29 28 20 18 19 19 20 21 17 17
27 28 30 33 36 39 37 35 37 33 32 35 38 37 36 34 35 34 30 29 27 25 26 24 26 21 22 28 31 27 24 29 30 33 35 35 33 26 24 23 19 17 20 17 10
24 25 26 29 33 36 40 38 34 36 35 35 37 44 42 40 39 33 29 29 26 24 28 29 28 28 26 23 24 24 27 26 27 29 34 37 37 32 30 27 23 23 27 22 21
23 23 23 25 28 33 36 40 39 36 35 38 37 40 44 46 44 42 34 32 31 29 27 27 27 28 26 28 27 30 31 29 28 30 29 33 35 33 31 27 28 29 22 20 18
20 20 21 22 25 28 32 34 38 41 38 36 42 43 44 43 50 48 45 39 37 36 36 33 34 32 31 33 36 35 36 35 28 32 31 31 36 38 38 36 31 26 23 24 20
19 19 21 20 20 24 26 27 31 35 39 41 40 45 45 46 48 48 48 50 48 46 45 42 44 43 39 41 40 38 36 36 35 33 23 24 27 32 35 37 33 28 29 26 24
Wind_Direction
119 120 122 122 123 120 113 112 113 116 123 128 128 123 112 112 114 111 112 116 124 126 130 128 134 142 145 138 138 137 123 135 146 136 122 99 83 76 59 53 56 63 78 94 94
123 119 120 123 122 116 115 124 122 123 124 124 119 115 112 111 105 106 112 99 104 127 141 135 136 139 143 130 127 128 106 114 135 130 117 103 90 77 61 44 61 53 69 102 105
121 117 114 116 120 124 123 119 118 125 125 123 119 119 118 110 108 112 97 107 97 131 133 141 129 122 128 126 114 126 137 110 103 108 105 122 113 96 87 75 72 77 71 112 114
102 117 124 121 121 122 126 123 121 125 125 120 119 122 120 115 115 116 111 113 106 114 106 125 129 106 112 139 135 129 123 119 113 120 122 107 121 119 105 83 78 126 107 114 121
95 98 107 124 126 128 128 129 130 131 131 125 120 119 128 122 120 117 124 110 115 92 118 127 151 120 122 131 142 139 143 129 91 72 117 106 82 52 82 76 49 125 137 320 120
90 93 100 105 118 127 134 136 135 135 135 132 131 129 129 126 130 119 113 122 129 115 98 124 127 145 162 140 134 150 118 89 80 83 85 57 28 2 348 359 51 131 168 207 226
77 83 91 106 116 128 139 141 143 143 138 136 136 136 135 137 143 147 148 129 135 132 118 121 132 136 132 132 108 106 105 136 64 59 84 95 76 29 7 30 37 38 285 233 216
74 69 70 87 106 125 135 146 152 154 154 150 152 156 155 153 150 150 154 157 153 129 119 127 120 128 116 120 165 109 87 68 39 34 62 84 58 61 84 31 33 354 314 286 261
99 77 68 65 77 116 138 142 155 165 171 165 164 168 172 168 164 161 162 165 164 164 158 142 125 129 148 160 156 121 93 37 52 35 69 73 82 79 71 20 312 311 261 280 283
245 243 245 266 63 66 123 173 162 180 184 176 176 183 188 195 197 175 172 176 174 180 175 165 166 166 197 192 218 219 48 4 7 22 74 81 50 45 67 4 277 265 256 245 262
255 256 252 249 245 234 49 82 185 212 216 194 191 192 186 194 205 206 202 190 193 197 200 197 193 198 221 232 243 248 333 322 10 346 7 44 62 28 358 4 344 243 277 250 239
254 259 259 259 255 254 245 210 206 210 208 213 207 203 204 196 200 202 209 210 204 210 214 219 206 205 227 249 266 282 255 272 292 312 309 333 337 278 323 340 330 326 303 265 240
247 251 256 258 261 260 252 244 241 240 225 227 218 219 222 221 216 202 213 218 231 229 222 229 233 228 243 261 268 288 268 276 285 290 293 313 301 296 292 319 324 332 335 264 254
244 246 249 252 254 253 257 256 251 249 245 244 235 231 227 231 225 210 231 234 241 247 241 248 269 252 247 243 274 267 278 287 306 302 304 306 319 305 286 301 311 326 344 305 254
243 244 246 248 251 253 254 256 259 257 253 242 243 245 235 239 248 234 238 240 241 252 259 232 258 269 262 237 264 259 273 290 283 285 290 288 306 321 316 319 315 337 11 5 315
245 247 247 248 247 250 252 253 255 256 252 252 252 250 245 244 246 246 245 244 245 255 266 270 267 273 266 245 254 261 257 276 273 284 294 294 293 297 298 336 330 6 358 344 349
245 247 248 248 248 248 249 250 252 250 248 252 254 256 256 252 249 249 247 241 245 252 260 250 263 274 256 246 252 263 248 259 271 287 298 300 292 306 296 285 318 316 329 339 359
251 251 249 248 248 248 247 249 250 248 249 249 249 251 251 252 250 250 249 247 244 243 247 258 259 267 258 228 225 233 252 275 290 295 293 298 303 312 296 287 279 298 325 331 332
252 253 255 254 255 251 249 246 249 248 247 246 245 242 246 250 250 251 247 245 242 241 242 248 245 251 247 229 217 228 238 259 272 280 289 295 300 300 266 289 277 294 303 311 317
254 255 256 255 254 254 252 252 253 249 247 240 242 239 239 246 250 248 250 241 231 231 231 232 238 240 239 235 226 230 238 254 265 280 282 293 302 298 253 271 285 305 304 313 311
258 258 258 255 255 255 256 255 252 248 246 245 240 239 235 240 244 246 241 226 233 237 244 230 228 230 235 233 225 234 237 249 261 270 278 297 304 292 289 286 296 308 314 309 321
256 256 255 255 255 255 252 246 243 239 233 241 241 242 236 233 238 244 243 236 231 236 241 243 237 209 231 215 225 230 240 251 263 272 275 282 289 288 292 296 306 301 306 333 344
252 256 257 257 255 252 251 247 243 240 244 242 242 243 247 240 243 246 248 242 236 233 238 244 259 249 223 216 222 238 250 252 260 266 274 279 286 290 289 300 306 301 306 324 333
257 257 260 257 252 251 247 247 245 239 238 245 242 240 243 248 254 251 253 247 254 252 255 258 260 257 256 239 233 238 245 259 266 278 274 274 280 283 291 302 300 303 305 308 303
257 259 260 257 253 249 248 245 247 247 239 239 245 245 243 248 249 257 253 250 250 254 262 259 260 263 258 255 251 250 256 263 275 282 274 276 273 281 287 293 301 307 303 294 291
257 256 260 258 255 251 249 247 244 246 244 243 241 242 243 245 245 248 252 250 248 253 252 258 259 256 256 262 266 264 264 263 282 298 285 274 272 277 282 288 295 304 311 289 293
254 255 253 260 260 254 252 251 251 250 249 243 241 244 245 245 245 246 250 252 253 251 250 255 260 258 253 264 262 259 261 264 273 287 291 285 277 271 275 282 288 295 302 304 290
Height
5896 5896 5898 5898 5898 5899 5900 5901 5901 5901 5902 5903 5904 5905 5906 5906 5907 5906 5906 5908 5908 5910 5912 5914 5916 5918 5922 5924 5926 5926 5929 5929 5931 5932 5932 5931 5930 5928 5927 5928 5928 5928 5928 5928 5929
5898 5899 5900 5900 5901 5902 5902 5903 5904 5904 5905 5906 5907 5908 5908 5909 5910 5909 5910 5910 5908 5912 5913 5915 5917 5921 5924 5925 5927 5928 5930 5931 5933 5934 5934 5933 5931 5930 5929 5929 5928 5929 5930 5930 5930
5900 5901 5902 5903 5903 5904 5904 5906 5907 5907 5908 5908 5909 5910 5910 5912 5913 5914 5913 5913 5912 5914 5917 5919 5923 5925 5925 5927 5927 5928 5931 5933 5935 5935 5934 5934 5932 5929 5930 5930 5929 5928 5930 5931 5930
5902 5903 5904 5905 5905 5906 5907 5908 5909 5910 5910 5911 5911 5913 5913 5915 5918 5917 5917 5918 5917 5918 5922 5923 5926 5928 5929 5928 5928 5931 5933 5934 5934 5933 5933 5933 5933 5931 5931 5931 5930 5929 5930 5931 5931
5904 5905 5906 5907 5908 5908 5909 5910 5912 5912 5913 5913 5914 5915 5917 5919 5919 5920 5921 5921 5921 5920 5923 5926 5929 5931 5932 5933 5934 5934 5934 5937 5938 5936 5935 5935 5934 5934 5934 5934 5934 5932 5932 5932 5932
5906 5907 5908 5909 5910 5911 5911 5912 5913 5915 5916 5916 5917 5918 5919 5923 5923 5923 5924 5925 5925 5925 5926 5929 5931 5932 5934 5934 5936 5937 5937 5937 5936 5936 5937 5938 5937 5937 5937 5936 5936 5935 5933 5933 5933
5908 5909 5910 5912 5913 5914 5914 5914 5915 5916 5917 5919 5919 5921 5922 5925 5926 5926 5926 5927 5928 5928 5929 5930 5932 5934 5934 5935 5938 5939 5939 5938 5937 5938 5939 5937 5937 5938 5937 5937 5937 5936 5936 5935 5933
5910 5911 5911 5913 5914 5915 5917 5917 5918 5918 5919 5920 5921 5922 5924 5924 5925 5927 5927 5929 5930 5931 5932 5934 5933 5935 5935 5936 5936 5937 5937 5938 5938 5938 5938 5938 5937 5935 5935 5935 5936 5936 5936 5937 5935
5911 5912 5913 5914 5915 5916 5917 5918 5918 5920 5921 5922 5923 5924 5925 5925 5926 5927 5927 5928 5930 5932 5933 5934 5935 5935 5935 5935 5934 5934 5935 5936 5937 5936 5937 5937 5936 5935 5934 5934 5933 5934 5934 5935 5933
5911 5912 5914 5915 5916 5916 5917 5918 5919 5919 5920 5921 5923 5925 5926 5928 5927 5927 5927 5927 5929 5931 5933 5933 5933 5933 5933 5935 5936 5935 5935 5933 5932 5935 5935 5936 5934 5935 5933 5932 5932 5931 5929 5931 5931
5909 5911 5912 5914 5916 5918 5918 5919 5922 5922 5921 5922 5923 5924 5925 5926 5927 5929 5930 5929 5929 5930 5931 5931 5932 5933 5934 5935 5935 5935 5934 5933 5934 5933 5933 5934 5933 5934 5934 5933 5933 5931 5929 5927 5927
5907 5908 5910 5912 5914 5917 5918 5918 5919 5920 5920 5921 5922 5923 5924 5924 5925 5927 5928 5930 5930 5930 5930 5931 5931 5932 5933 5935 5935 5935 5935 5933 5933 5933 5932 5932 5931 5932 5932 5932 5931 5931 5929 5927 5925
5905 5906 5907 5909 5911 5914 5915 5917 5917 5918 5919 5920 5921 5922 5923 5925 5925 5926 5927 5928 5929 5930 5930 5930 5930 5930 5931 5932 5933 5935 5932 5931 5931 5930 5931 5930 5930 5930 5929 5929 5928 5928 5927 5925 5923
5902 5903 5905 5907 5910 5910 5911 5913 5914 5916 5917 5918 5918 5920 5921 5921 5922 5924 5924 5926 5926 5927 5928 5929 5927 5927 5928 5930 5931 5933 5930 5929 5929 5927 5927 5927 5928 5927 5926 5926 5926 5925 5925 5921 5921
5898 5900 5901 5903 5905 5907 5909 5909 5910 5912 5913 5916 5915 5916 5917 5919 5918 5921 5921 5922 5923 5923 5926 5929 5924 5925 5926 5927 5926 5931 5927 5926 5926 5926 5923 5924 5924 5924 5923 5924 5923 5922 5921 5918 5913
5893 5895 5897 5899 5901 5903 5904 5905 5907 5909 5908 5909 5910 5911 5913 5914 5915 5916 5918 5919 5920 5921 5923 5925 5922 5923 5925 5923 5924 5927 5925 5924 5923 5922 5921 5920 5919 5922 5920 5921 5920 5919 5917 5916 5912
5887 5888 5890 5892 5895 5896 5898 5900 5903 5903 5903 5904 5905 5906 5907 5909 5910 5911 5912 5914 5915 5916 5917 5918 5918 5919 5922 5922 5921 5923 5923 5923 5922 5920 5918 5916 5915 5918 5917 5917 5917 5915 5913 5911 5909
5880 5881 5882 5886 5887 5889 5891 5894 5896 5896 5896 5898 5900 5900 5902 5904 5905 5906 5907 5908 5909 5910 5911 5912 5913 5915 5918 5920 5920 5919 5920 5919 5915 5917 5916 5913 5913 5914 5913 5912 5912 5912 5910 5909 5906
5873 5874 5875 5879 5880 5881 5884 5888 5888 5888 5891 5892 5894 5894 5895 5896 5899 5900 5902 5903 5904 5904 5906 5905 5907 5906 5911 5912 5913 5915 5916 5917 5914 5914 5912 5911 5910 5911 5910 5909 5908 5908 5907 5905 5900
5865 5867 5869 5871 5872 5873 5877 5882 5882 5882 5883 5884 5887 5889 5889 5890 5893 5894 5894 5897 5897 5898 5897 5900 5902 5903 5904 5906 5908 5910 5913 5913 5911 5909 5908 5908 5906 5905 5907 5906 5905 5905 5904 5901 5895
5857 5859 5861 5863 5864 5866 5870 5874 5876 5876 5876 5877 5879 5881 5883 5884 5886 5887 5892 5891 5892 5894 5894 5894 5896 5900 5900 5902 5905 5906 5907 5907 5907 5907 5904 5903 5903 5904 5903 5903 5902 5901 5898 5896 5892
5847 5850 5851 5853 5857 5859 5862 5865 5868 5867 5868 5870 5874 5875 5877 5878 5881 5884 5888 5887 5890 5890 5891 5892 5894 5894 5896 5900 5900 5901 5902 5902 5901 5902 5901 5899 5899 5901 5900 5900 5898 5896 5894 5893 5889
5840 5842 5843 5845 5847 5850 5852 5854 5857 5862 5864 5866 5868 5870 5871 5875 5878 5880 5883 5884 5885 5887 5888 5890 5890 5893 5893 5894 5894 5896 5899 5898 5897 5896 5896 5895 5895 5896 5897 5896 5893 5892 5891 5892 5888
5833 5835 5836 5837 5837 5839 5842 5846 5849 5853 5857 5859 5863 5863 5865 5867 5868 5873 5876 5878 5880 5882 5883 5885 5886 5887 5889 5893 5893 5891 5891 5891 5892 5891 5891 5890 5890 5892 5892 5890 5888 5888 5887 5886 5885
5826 5828 5828 5828 5829 5830 5833 5837 5841 5844 5848 5851 5855 5857 5859 5862 5863 5865 5870 5872 5873 5875 5876 5878 5879 5880 5881 5883 5884 5885 5885 5885 5885 5886 5885 5886 5885 5886 5886 5886 5885 5885 5883 5882 5881
5820 5822 5821 5821 5822 5823 5825 5828 5831 5835 5840 5843 5846 5845 5848 5854 5855 5859 5861 5865 5868 5870 5868 5871 5871 5873 5874 5875 5876 5877 5878 5878 5879 5879 5878 5879 5880 5880 5881 5881 5881 5880 5879 5878 5880
5813 5815 5815 5816 5816 5817 5818 5821 5823 5825 5829 5832 5836 5837 5839 5843 5845 5849 5851 5854 5857 5859 5861 5863 5865 5864 5865 5867 5867 5868 5870 5871 5872 5872 5871 5872 5873 5873 5874 5874 5875 5873 5873 5874 5875